Location: Newark
(45.0500°N, 41.9667°E)
Time: 06:36:37
(UTC+00:00)

Starlink (trailer) - Pass Details

Date: 22 July 2019
Orbit: 549 x 551 km, 53.0° (Epoch: 23 August)

Event Time Altitude Azimuth Distance (km) Brightness Sun altitude
Exits shadow 22:56:03 26° 282° (WNW) 1,116 5.0 -21.1°
Maximum altitude 22:57:58 43° 338° (NNW) 779 4.6 -21.0°
Drops below altitude 10° 23:01:57 10° 51° (NE) 1,829 7.2 -20.7°
Sets 23:04:16 0° 58° (ENE) 2,725 8.1 -20.5°
